Погода в Плахине

Россия / Рязанская область     54°27′40″N   39°20′20″E
темп.,
°C
ветер,
м/с
пор.,
м/с
влажн.,
%
обл.,
%
осадки,
мм/ч
давл.,
гПа
погр.,
м
17 мая, вт
вт1700:00+5з51290100 0.0 1006293
03:00+5з61193100 0.0 1005375
06:00+5з61191100 0.0 1004905
09:00+6зсз81295100 1.8 1003825
12:00+6зсз71295100 0.8 1003652
15:00+7зсз61094100 1.4 1003584
18:00+8зсз5996100 0.1 1003447
21:00+8сз5119499 4.0 1003387
18 мая, ср
ср1800:00+7с6119799 0.4 1004471
03:00+7с61097100 1.1 1005545
06:00+7с61196100 0.3 1008656
09:00+8с588878 0.5 1010656
12:00+12с675820 0.1 10111586
15:00+14ссз685099 0.1 10112119
18:00+11ссз71066100 0.1 1013813
21:00+8ссз51181100 0.1 1015427
19 мая, чт
чт1900:00+4сз41085100 0.0 1016248
03:00+3з369050 0.0 1016111
06:00+5зюз5138091 0.0 1015386
09:00+11зсз8116798 0.0 1014937
12:00+9с7981100 0.3 1015941
15:00+11сз797057 0.5 10151246
18:00+11сз58725 0.3 10151143
21:00+7зсз338675 0.3 101640
20 мая, пт
пт2000:00+5сз349317 0.1 101652
03:00+3с229132 0.1 101625
06:00+4ссв358819 0.0 1018171
09:00+8с56655 0.0 1019902
12:00+10с554916 0.0 10191766
15:00+11ссв33425 0.0 10181946
18:00+11с124361 0.0 10171588
21:00+6зсз1154100 0.0 101710
21 мая, сб
сб2100:00+4св1162100 0.0 101610
03:00+4вюв1166100 0.0 101611
06:00+5в23715 0.0 1015102
09:00+10всв45615 0.0 1014720
12:00+11всв5551100 0.4 10131955
15:00+12св565376 0.7 10121835
18:00+10св586460 0.7 1012909
21:00+5ссв46775 0.8 101398